Flag for Poland Weather past 2 weeks in Warsaw, Poland

Now
55 °F

Light rain. Clear.


Feels Like: 55 °F
Forecast: 52 / 69 °F
Wind: 1 mph from North

Location: Warsaw Okecie Airport

Current Time: Sep 4, 2015 at 8:16:42 AM

Latest Report: Sep 4, 2015 at 8:00 AM


Visibility: N/A

Pressure: 29.92 "Hg

Humidity: 88%

Dew point: 52 °F

Location of WarsawLocation

Historic Weather in Warsaw — Graph

°F

Warsaw temperature yesterday

Maximum temperature yesterday: 72 °F (at 12:30 PM)
Minimum temperature yesterday: 50 °F (at 2:30 AM)
Average temperature yesterday: 62 °F

Past Weeks' High & Low Weather Summary

 TemperatureHumidityPressure
High95 °F (Aug 31, 2:30 PM)100% (Aug 25, 11:00 PM)30.36 "Hg (Aug 25, 11:00 PM)
Low50 °F (Sep 3, 2:30 AM)21% (Sep 1, 3:30 PM)29.65 "Hg (Sep 2, 1:30 AM)
Average69 °F58%30.06 "Hg
* Reported Aug 20 7:00 AM — Sep 4 7:00 AM, Warsaw, Weather by CustomWeather, © 2015

Note: Actual official high and low records may vary slightly from our data, if they occured in-between our weather recording intervals... More about our weather records

Advertising

Warsaw weather history for previous 24 hours

 ConditionsComfort  
Time TempWeatherWind HumidityBarometerVisibility
7:00 AM
Fri, Sep 4
57 °FLight rain. Clear.5 mph77%29.92 "HgN/A
6:30 AM57 °FLight rain. Clear.6 mph77%29.92 "HgN/A
6:00 AM57 °FPassing clouds.3 mph77%29.92 "HgN/A
5:30 AM57 °FClear.3 mph77%29.92 "Hg10 mi
5:00 AM57 °FClear.3 mph77%29.92 "Hg10 mi
4:30 AM55 °FPassing clouds.3 mph77%29.92 "HgN/A
4:00 AM54 °FClear.3 mph82%29.92 "Hg10 mi
3:30 AM55 °FClear.2 mph82%29.92 "Hg10 mi
3:00 AM55 °FClear.2 mph82%29.92 "Hg10 mi
2:30 AM55 °FClear.5 mph77%29.92 "Hg10 mi
2:00 AM55 °FClear.3 mph82%29.95 "Hg10 mi
1:30 AM55 °FClear.3 mph82%29.95 "Hg10 mi
1:00 AM57 °FClear.5 mph77%29.95 "Hg10 mi
12:30 AM57 °FPassing clouds.6 mph77%29.95 "HgN/A
11:30 PM
Thu, Sep 3
59 °FClear.3 mph72%29.98 "Hg10 mi
11:00 PM61 °FPassing clouds.3 mph68%29.98 "HgN/A
10:30 PM61 °FClear.3 mph68%29.95 "Hg10 mi
10:00 PM63 °FPassing clouds.6 mph64%29.95 "HgN/A
9:30 PM63 °FPassing clouds.5 mph64%29.98 "HgN/A
9:00 PM63 °FClear.3 mph64%29.98 "Hg10 mi
8:30 PM59 °FClear.2 mph72%29.98 "Hg10 mi
8:00 PM63 °FSunny.5 mph64%29.98 "Hg10 mi
7:30 PM64 °FSunny.2 mph60%29.95 "Hg10 mi
7:00 PM66 °FSunny.2 mph56%29.95 "Hg10 mi
6:30 PM66 °FSunny.2 mph56%29.98 "Hg10 mi
6:00 PM68 °FSunny.3 mph53%29.98 "Hg10 mi
5:30 PM68 °FPassing clouds.5 mph53%29.98 "HgN/A
5:00 PM68 °FSunny.5 mph53%29.98 "Hg10 mi
4:30 PM68 °FSunny.7 mph53%29.98 "Hg10 mi
4:00 PM68 °FSunny.6 mph53%29.98 "Hg10 mi
3:30 PM70 °FSunny.8 mph50%29.98 "Hg10 mi
3:00 PM72 °FPassing clouds.8 mph47%29.98 "HgN/A
2:30 PM70 °FPassing clouds.9 mph50%29.98 "HgN/A
2:00 PM70 °FSunny.8 mph50%30.01 "Hg10 mi
1:30 PM72 °FSunny.5 mph41%30.01 "Hg10 mi
1:00 PM70 °FPassing clouds.6 mph43%30.01 "HgN/A
12:30 PM72 °FScattered clouds.5 mph44%30.01 "HgN/A
12:00 PM70 °FSunny.5 mph46%30.01 "Hg10 mi
11:30 AM66 °FScattered clouds.3 mph52%30.01 "HgN/A
11:00 AM66 °FScattered clouds.5 mph60%30.01 "HgN/A
10:30 AM68 °FPassing clouds.5 mph60%30.04 "HgN/A
10:00 AM66 °FPassing clouds.2 mph64%30.04 "HgN/A
9:30 AM63 °FSunny.2 mph73%30.04 "Hg10 mi
9:00 AM61 °FSunny.2 mph77%30.04 "Hg10 mi
8:30 AM59 °FPassing clouds.3 mph82%30.04 "HgN/A
8:00 AM59 °FSunny.5 mph88%30.01 "Hg10 mi
Weather by CustomWeather, © 2015

See weather overviewHow to use our weather pages